Location: Unspecified
(41.5000°N, 0.0000°E)
Time: 19:00:54
(UTC+00:00)

deb Explorer IX - Pass Details

Date: 24 June 2019
Orbit: 539 x 1112 km, 38.8° (Epoch: 19 July)

Event Time Altitude Azimuth Distance (km) Brightness Sun altitude
Rises 12:33:51 0° 231° (SW) 3,655 ? 70.8°
Reaches altitude 10° 12:36:31 10° 224° (SW) 2,780 ? 70.6°
Maximum altitude 12:42:57 44° 155° (SSE) 1,457 ? 70.0°
Drops below altitude 10° 12:49:50 10° 87° (E) 2,973 ? 69.4°
Sets 12:52:46 0° 81° (E) 3,931 ? 69.1°
